Weather observations for the past three days for
Houston, Houston Hobby Airport
Imperial (Metric)
Date Time (cdt) Wind (mph) Vis. (mi.) Weather Sky Cond. Temperature (ºF) Relative Humidity Wind Chill (°F) Heat Index (°F) Pressure Precipitation (in)
Air Dwpt 6 hour altimeter (in) sea level (mb) 1 hr 3 hr 6 hr
Max. Min.
15 21:53 SE 5 10.00 Fair CLR 82.9 72 70% 88 29.87 1011.7
15 20:53 S 8 10.00 Fair CLR 87.1 71.1 59% 93 29.86 1011.4
15 19:53 SE 13 10.00 A Few Clouds FEW040 88 70 55% 93 29.85 1011.2
15 18:53 SE 10 10.00 A Few Clouds FEW043 90 71.1 95 89.1 54% 96 29.85 1011.0
15 17:53 SE 18 G 23 10.00 A Few Clouds FEW045 91.9 70 49% 98 29.84 1011.0
15 16:53 E 15 10.00 Partly Cloudy SCT048 SCT100 93.9 69.1 44% 99 29.86 1011.4
15 15:53 SE 10 G 24 10.00 Partly Cloudy SCT048 SCT100 91.9 70 49% 98 29.87 1011.8
15 14:53 E 12 G 22 10.00 Partly Cloudy SCT048 93 70 47% 99 29.88 1012.2
15 13:53 E 10 G 20 10.00 Partly Cloudy SCT046 93 71.1 49% 100 29.9 1012.8
15 12:53 SE 12 10.00 Partly Cloudy SCT045 91.9 70 93 78.1 49% 98 29.92 1013.6
15 11:53 SE 8 10.00 Partly Cloudy SCT044 91 71.1 52% 98 29.93 1013.9
15 10:53 E 3 10.00 Partly Cloudy SCT040 90 71.1 54% 96 29.94 1014.2
15 09:53 Calm 10.00 Partly Cloudy FEW020 SCT040 87.1 72 61% 94 29.94 1014.3
15 08:53 Calm 10.00 A Few Clouds FEW020 86 73 65% 93 29.94 1014.4
15 07:53 NE 5 10.00 A Few Clouds FEW020 FEW040 82.9 73 72% 89 29.93 1013.8
15 06:53 Calm 10.00 A Few Clouds FEW040 78.1 73 82 77 85% 81 29.91 1013.1
15 05:53 Calm 10.00 A Few Clouds FEW040 78.1 73 85% 81 29.9 1012.7
15 04:53 Calm 10.00 Fair CLR 78.1 73 85% 81 29.89 1012.6
15 03:53 Calm 10.00 Fair CLR 79 73 82% 82 29.89 1012.6
15 02:53 Calm 10.00 Fair CLR 79 73 82% 82 29.9 1012.9
15 01:53 SW 3 10.00 Fair CLR 80.1 73 79% 84 29.92 1013.4
15 00:53 Calm 10.00 Fair CLR 82 73 91.9 81 74% 87 29.93 1013.8
14 23:53 S 5 10.00 Fair CLR 82 73 74% 87 29.93 1013.8
14 22:53 S 5 10.00 A Few Clouds FEW060 82.9 73 72% 89 29.92 1013.6
14 21:53 S 5 10.00 A Few Clouds FEW040 FEW070 84 73 70% 90 29.91 1013.1
14 20:53 S 8 10.00 A Few Clouds FEW060 FEW100 86 72 63% 92 29.89 1012.6
14 19:53 S 6 10.00 A Few Clouds FEW060 FEW080 FEW120 89.1 69.1 52% 94 29.87 1011.9
14 18:53 E 8 10.00 Partly Cloudy FEW055 SCT070 91.9 71.1 95 91 51% 99 29.86 1011.4
14 17:53 SE 10 10.00 A Few Clouds FEW055 FEW070 93 71.1 49% 100 29.85 1011.3
14 16:53 Calm 10.00 Partly Cloudy SCT055 SCT070 93 70 47% 99 29.87 1011.7
14 15:53 Vrbl 3 G 17 10.00 Partly Cloudy FEW055 SCT070 93 70 47% 99 29.88 1012.1
14 14:53 Vrbl 5 10.00 Partly Cloudy SCT055 95 68 41% 100 29.89 1012.6
14 13:53 NE 9 10.00 Partly Cloudy SCT050 93 70 47% 99 29.91 1013.2
14 12:53 Vrbl 3 10.00 Partly Cloudy SCT055 93 68 93 80.1 44% 97 29.93 1013.9
14 11:53 Vrbl 7 10.00 Partly Cloudy SCT040 93 69.1 46% 98 29.94 1014.4
14 10:53 E 8 10.00 Partly Cloudy SCT035 91 69.1 49% 96 29.95 1014.4
14 09:53 N 5 10.00 Partly Cloudy SCT030 87.1 73.9 65% 95 29.95 1014.7
14 08:53 N 5 10.00 A Few Clouds FEW020 86 75.9 72% 96 29.96 1014.8
14 07:53 N 6 9.00 A Few Clouds FEW015 FEW250 82.9 75.9 79% 91 29.95 1014.6
14 06:53 N 5 10.00 A Few Clouds FEW018 FEW050 80.1 75 82 78.1 85% 85 29.93 1014.0
14 05:53 NE 3 10.00 A Few Clouds FEW018 FEW050 79 73.9 85% 83 29.92 1013.5
14 04:53 Calm 10.00 A Few Clouds FEW020 79 73.9 85% 83 29.91 1013.3
14 03:53 Calm 10.00 A Few Clouds FEW020 79 75 88% 83 29.9 1012.9
14 02:53 Calm 10.00 A Few Clouds FEW020 80.1 73.9 82% 85 29.9 1013.0
14 01:53 Calm 10.00 A Few Clouds FEW020 81 75 82% 87 29.91 1013.1
14 00:53 Calm 10.00 Fair CLR 81 73.9 91 81 79% 86 29.91 1013.1
13 23:53 S 3 10.00 Fair CLR 81 73.9 79% 86 29.91 1013.0
13 22:53 S 6 10.00 A Few Clouds FEW060 82.9 75 77% 90 29.9 1012.9
13 21:53 S 6 10.00 A Few Clouds FEW060 84 75 74% 92 29.89 1012.6
13 20:53 S 9 10.00 Mostly Cloudy SCT045 BKN065 86 75 70% 95 29.88 1012.3
13 19:53 E 8 10.00 Partly Cloudy SCT048 SCT080 89.1 73 59% 97 29.88 1012.1
13 18:53 E 10 10.00 Partly Cloudy SCT050 SCT070 90 73 93 89.1 58% 98 29.87 1011.8
13 17:53 SE 9 10.00 Mostly Cloudy BKN050 BKN075 91 73 56% 100 29.87 1011.9
13 16:53 E 7 10.00 Mostly Cloudy BKN055 93 72 50% 101 29.88 1012.2
13 15:53 Vrbl 7 10.00 Mostly Cloudy BKN048 91 72 54% 99 29.89 1012.4
13 14:53 Vrbl 7 10.00 Mostly Cloudy SCT035 BKN060 91 73.9 57% 101 29.9 1013.0
13 13:53 E 6 10.00 Partly Cloudy SCT035 91 73.9 57% 101 29.92 1013.5
13 12:53 Calm 10.00 Partly Cloudy SCT030 SCT070 90 75 90 80.1 62% 100 29.94 1014.1 0.01
13 11:53 Calm 10.00 Light Rain SCT030 BKN060 84.9 77 77% 95 29.95 1014.6 0.01
13 10:53 E 6 10.00 Mostly Cloudy SCT023TCU BKN085 87.1 75 67% 97 29.95 1014.4
13 09:53 NE 3 10.00 Partly Cloudy SCT020 SCT080 87.1 75.9 70% 98 29.94 1014.3
13 08:53 E 6 9.00 Partly Cloudy FEW030 SCT080 84 75.9 77% 93 29.94 1014.2
13 07:53 SE 6 9.00 Mostly Cloudy SCT020 BKN085 BKN250 81 75.9 85% 87 29.93 1013.8
13 06:53 NE 5 9.00 Mostly Cloudy SCT030 BKN080 BKN120 80.1 75 80.1 77 85% 85 29.91 1013.2
13 05:53 N 5 8.00 Mostly Cloudy SCT027 SCT040 BKN085 78.1 75 90% 81 29.89 1012.6
13 04:53 N 3 6.00 Fog/Mist FEW040 FEW080 FEW100 78.1 75 90% 81 29.87 1012.1
13 03:53 Calm 6.00 Fog/Mist FEW050 78.1 75 90% 81 29.87 1011.7
13 02:53 N 3 7.00 A Few Clouds FEW050 FEW070 79 75 88% 83 29.87 1011.9
13 01:53 N 3 8.00 Partly Cloudy FEW045 SCT070 79 75 88% 83 29.88 1012.3
13 00:53 Calm 9.00 A Few Clouds FEW080 78.1 75.9 80.1 78.1 93% 81 29.9 1012.8
12 23:53 Calm 10.00 Fair CLR 79 75 88% 83 29.91 1013.2
12 22:53 Calm 10.00 A Few Clouds FEW100 79 75 88% 83 29.91 1013.2
Date Time (cdt) Wind (mph) Vis. (mi.) Weather Sky Cond. Air Dwpt Max. Min. Relative Humidity Wind Chill (°F) Heat Index (°F) altimeter (in) sea level (mb) 1 hr 3 hr 6 hr
6 hour
Temperature (ºF) Pressure Precipitation (in)